Tracking 19709 objects as of 17-Jun-2019
HD Live streaming from Space Station
objects crossing your sky now

H-2A R/B

Track H-2A R/B now!
10-day predictions


NORAD ID: 43496
Int'l Code: 2018-052B
Perigee: 484.2 km
Apogee: 505.9 km
Inclination: 97.2 °
Period: 94.4 minutes
Semi major axis: 6866 km
RCS: Unknown
Launch date: June 12, 2018
Source: Japan (JPN)
Launch site: TANEGASHIMA SPACE CENTER (TNSTA)

Note: This is a ROCKET BODY
aabbcc
Your satellite tracking list
Your tracking list is empty




NASA's NSSDC Master Catalog

Two Line Element Set (TLE):
1 43496U 18052B   19163.97501620 0.00001018  00000-0  39590-4 0    05
2 43496  97.2202 271.9261 0015806 178.3912 181.6086 15.25952686    08
Source of the keplerian elements: McCants